#timestamp,LO_Frequency,Hit,StdDev 
1588737615.1,286046995.0,Y
1588737635.9,286046994.9,P
1588737655.7,286046999.2,N
1588737675.5,286046995.3,N
1588737695.4,286046997.5,N
1588737715.2,286046995.0,N
1588737735.1,286046995.1,N
1588737736.0,286046995.1,N
1588737755.8,286046995.2,N
1588737775.6,286046996.3,N
1588737795.5,286046995.1,N
1588737815.3,286046995.5,N
1588737835.1,286046995.9,N
1588737855.9,286046996.0,N
1588737875.7,286046995.4,N
1588737895.6,286046995.1,Y
1588737915.4,286046998.5,P
1588737935.2,286046998.7,N
1588737955.1,286046999.4,N
1588737956.0,286046999.4,N
1588737975.8,286046999.4,N
1588737995.7,286046998.8,N
1588738015.5,286046999.1,N
1588738035.3,286046999.5,N
1588738055.2,286046996.6,Y
1588738075.0,286046998.3,P
1588738075.9,286046998.3,P
1588738095.8,286047000.5,N
1588738115.6,286047000.5,N
1588738135.4,286047000.0,N
1588738155.3,286046998.1,N
1588738175.1,286047000.9,N
1588738195.8,286047000.6,N
1588738215.7,286047000.1,N
1588738235.5,286047002.7,N
1588738255.4,286047002.6,N
1588738275.2,286047000.0,N
1588738295.0,286047000.0,N
1588738295.9,286047000.0,N
1588738315.8,286047002.6,N
1588738335.6,286047002.8,N
1588738355.4,286046998.5,N
1588738375.3,286046999.8,N
1588738395.1,286047000.2,N
1588738415.9,286046998.5,N
1588738435.7,286046998.9,N
1588738455.5,286046998.9,N
1588738475.4,286046999.2,N
1588738495.2,286046998.5,N
1588738515.1,286046998.3,N
1588738516.0,286046998.3,N
1588738535.8,286046999.3,N
1588738555.6,286047002.6,N
1588738575.5,286047002.8,N
1588738595.3,286046999.7,N
1588738615.1,286047000.0,N
1588738635.9,286047000.6,N
1588738655.7,286047001.1,N
1588738675.6,286047001.2,N
1588738695.4,286047000.7,N
1588738715.2,286047000.0,N
1588738735.1,286047000.2,N
1588738736.0,286047000.2,N
1588738755.8,286047000.2,N
1588738775.7,286047000.9,N
1588738795.5,286047001.0,N
1588738815.3,286046998.9,N
1588738835.2,286046999.0,N
1588738855.0,286046996.6,N
1588738855.9,286046996.6,N
1588738875.7,286046996.9,N
1588738895.6,286046996.6,N
1588738915.4,286046999.1,N
1588738935.3,286047011.9,Y
1588738955.1,286047002.6,P
1588738975.8,286047000.2,N
1588738995.7,286047001.2,N
1588739015.5,286046998.4,N
1588739035.4,286046998.7,N
1588739055.2,286047000.5,N
1588739075.0,286047002.1,N
1588739075.9,286047002.1,N
1588739095.8,286047002.6,N
1588739115.6,286047002.8,N
1588739135.5,286047000.0,N
1588739155.3,286047000.0,N
1588739175.1,286047002.6,N
1588739195.9,286047002.3,N
1588739215.7,286047002.0,N
1588739235.5,286047003.7,N
1588739255.4,286047001.8,N
1588739275.2,286047005.4,Y
1588739295.1,286046999.8,P
1588739296.0,286046999.8,N
1588739315.8,286047001.9,N
1588739335.6,286047001.7,N
1588739355.5,286047004.0,Y
1588739375.3,286047002.0,P
1588739395.2,286047000.5,N
1588739415.9,286046998.5,N
1588739435.7,286047000.9,N
1588739455.6,286047003.3,N
1588739475.4,286047002.9,N
1588739495.2,286047003.5,N
1588739515.1,286047005.9,Y
1588739516.0,286047005.9,P
1588739535.8,286047004.0,N
1588739555.7,286046999.7,N
1588739575.5,286047002.8,N
1588739595.3,286047002.3,N
1588739615.2,286047001.5,N
1588739635.0,286047001.4,N
1588739635.9,286047001.4,N
1588739655.8,286046999.7,N
1588739675.6,286047001.3,N
1588739695.4,286047003.9,N
1588739715.3,286047003.1,N
1588739735.1,286047002.9,N
1588739755.9,286047004.1,N
1588739775.7,286047002.5,N
1588739795.5,286046998.1,N
1588739815.4,286046999.1,N
1588739835.2,286047000.4,N
1588739855.0,286047001.8,N
1588739856.0,286047001.8,N
1588739875.8,286047005.2,N
1588739895.6,286047007.5,Y
1588739915.5,286047002.7,P
1588739935.3,286047001.6,P
1588739955.2,286047001.3,N
1588739975.9,286047002.0,Y
1588739995.7,286047001.1,P
1588740015.6,286046998.6,P
1588740035.4,286046999.4,N
1588740055.2,286047001.0,N
1588740075.1,286046998.9,N
1588740076.0,286046998.9,N
1588740095.8,286046996.9,N
1588740115.7,286046996.8,N
1588740135.5,286046998.1,N
1588740155.3,286046997.1,N
1588740175.2,286046997.6,N
1588740195.0,286046999.0,N
1588740195.9,286046999.0,N
1588740215.8,286046998.7,N
1588740235.6,286046998.8,N
1588740255.4,286046998.9,N
1588740275.3,286046998.6,N
1588740295.1,286046998.6,N
1588740315.9,286046998.2,N
1588740335.7,286047002.4,N
1588740355.5,286047002.4,N
1588740375.4,286047000.1,N
1588740395.2,286047002.0,N
1588740415.0,286046998.8,N
1588740415.9,286046998.8,N
1588740435.8,286047000.7,N
1588740455.6,286047000.4,N
1588740475.5,286047001.6,N
1588740495.3,286047006.0,Y
1588740515.1,286047005.6,P
1588740535.9,286047003.5,N
1588740555.7,286047004.4,N
1588740575.6,286047001.7,N
1588740595.4,286047000.5,N
1588740615.2,286047000.8,N
1588740635.1,286046998.2,N
1588740636.0,286046998.2,N
1588740655.8,286046999.0,N
1588740675.6,286046999.1,N
1588740695.5,286047004.3,N
1588740715.3,286047003.9,N
1588740735.2,286046999.8,N
1588740755.9,286046998.7,N
1588740775.7,286046998.2,N
1588740795.6,286046998.5,N
1588740815.4,286046996.8,N
1588740835.2,286046996.7,N
1588740855.1,286046997.4,N
1588740856.0,286046997.4,N
1588740875.8,286046996.6,N
1588740895.7,286046998.6,N
1588740915.5,286046998.3,N
1588740935.3,286046998.1,N
1588740955.2,286046998.7,N
1588740975.0,286046998.1,N
1588740975.9,286046998.1,N
1588740995.8,286047000.4,N
1588741015.6,286046998.8,N
1588741035.4,286046999.6,N
1588741055.3,286046996.9,N
1588741075.1,286046998.8,N
1588741095.8,286047002.5,N
1588741115.7,286047000.5,N
1588741135.5,286047000.6,N
1588741155.4,286046998.6,N
1588741175.2,286046995.0,N
1588741195.0,286046998.5,N
1588741195.9,286046998.5,N
